Hourly Weather Bubanza

Today, 28 September, Monday

Time Temperature Precipitation Wind Pressure Humidity
00:00 +21°C° 0.2 mm 0 mps 672 mmHg 83%
01:00 +21°C° 0.2 mm 0 mps 671 mmHg 82%
02:00 +23°C° 0 mm 1 mps 671 mmHg 80%
03:00 +23°C° 0 mm 1 mps 672 mmHg 80%
04:00 +20°C° 0 mm 0 mps 672 mmHg 81%
05:00 +20°C° 0 mm 0 mps 672 mmHg 81%
06:00 +22°C° 0 mm 0 mps 673 mmHg 75%
07:00 +23°C° 0 mm 0 mps 673 mmHg 70%
08:00 +26°C° 0 mm 0 mps 674 mmHg 62%
09:00 +28°C° 0 mm 0 mps 674 mmHg 54%
10:00 +30°C° 0 mm 0 mps 674 mmHg 46%
11:00 +34°C° 0 mm 1 mps 674 mmHg 37%
12:00 +34°C° 0.1 mm 1 mps 673 mmHg 39%
13:00 +34°C° 0.1 mm 2 mps 672 mmHg 40%
14:00 +32°C° 0 mm 2 mps 672 mmHg 41%
15:00 +31°C° 0.1 mm 3 mps 672 mmHg 45%
16:00 +30°C° 0.1 mm 3 mps 672 mmHg 48%
17:00 +29°C° 0.1 mm 3 mps 671 mmHg 52%
18:00 +28°C° 0.4 mm 2 mps 672 mmHg 60%
19:00 +26°C° 0.4 mm 2 mps 672 mmHg 68%
20:00 +25°C° 0.4 mm 1 mps 672 mmHg 77%
21:00 +24°C° 0.5 mm 1 mps 673 mmHg 78%
22:00 +24°C° 0.5 mm 1 mps 673 mmHg 80%
23:00 +24°C° 0.5 mm 1 mps 673 mmHg 81%

Tomorrow, 29 September, Tuesday

Time Temperature Precipitation Wind Pressure Humidity
00:00 +23°C° 0.3 mm 1 mps 673 mmHg 83%
01:00 +21°C° 0.3 mm 0 mps 673 mmHg 84%
02:00 +20°C° 0.3 mm 0 mps 672 mmHg 86%
03:00 +20°C° 0.8 mm 0 mps 672 mmHg 86%
04:00 +20°C° 0.8 mm 0 mps 672 mmHg 86%
05:00 +20°C° 0.8 mm 0 mps 672 mmHg 85%
06:00 +21°C° 0.3 mm 0 mps 673 mmHg 81%
07:00 +23°C° 0.3 mm 0 mps 674 mmHg 76%
08:00 +26°C° 0.3 mm 1 mps 675 mmHg 72%
09:00 +28°C° 0.8 mm 1 mps 675 mmHg 66%
10:00 +29°C° 0.8 mm 1 mps 675 mmHg 60%
11:00 +31°C° 0.8 mm 1 mps 675 mmHg 54%
12:00 +30°C° 1.6 mm 2 mps 674 mmHg 56%
13:00 +30°C° 1.6 mm 2 mps 673 mmHg 59%
14:00 +29°C° 1.6 mm 2 mps 672 mmHg 62%
15:00 +28°C° 1.1 mm 2 mps 672 mmHg 65%
16:00 +28°C° 1.1 mm 2 mps 672 mmHg 68%
17:00 +27°C° 1.1 mm 2 mps 671 mmHg 70%
18:00 +26°C° 0.8 mm 1 mps 672 mmHg 74%
19:00 +25°C° 0.8 mm 1 mps 672 mmHg 77%
20:00 +24°C° 0.8 mm 1 mps 673 mmHg 81%
21:00 +24°C° 0.6 mm 1 mps 673 mmHg 81%
22:00 +23°C° 0.6 mm 1 mps 673 mmHg 81%
23:00 +23°C° 0.6 mm 1 mps 673 mmHg 82%

Day after tomorrow, 30 September, Wednesday

Time Temperature Precipitation Wind Pressure Humidity
00:00 +23°C° 0.1 mm 1 mps 672 mmHg 82%
01:00 +22°C° 0.1 mm 1 mps 672 mmHg 82%
02:00 +22°C° 0.1 mm 1 mps 671 mmHg 82%
03:00 +22°C° 0 mm 1 mps 671 mmHg 81%
04:00 +22°C° 0 mm 1 mps 671 mmHg 81%
05:00 +22°C° 0 mm 1 mps 671 mmHg 80%
06:00 +24°C° 0 mm 1 mps 672 mmHg 74%
07:00 +26°C° 0 mm 1 mps 673 mmHg 68%
08:00 +25°C° 0 mm 0 mps 674 mmHg 61%
09:00 +29°C° 0.7 mm 1 mps 674 mmHg 58%
10:00 +30°C° 0.7 mm 2 mps 674 mmHg 55%
11:00 +31°C° 0.7 mm 2 mps 674 mmHg 52%
12:00 +31°C° 1.2 mm 2 mps 673 mmHg 53%
13:00 +31°C° 1.2 mm 2 mps 672 mmHg 55%
14:00 +30°C° 1.2 mm 3 mps 671 mmHg 57%
15:00 +29°C° 1.2 mm 2 mps 671 mmHg 62%
16:00 +28°C° 1.2 mm 2 mps 671 mmHg 67%
17:00 +27°C° 1.2 mm 2 mps 670 mmHg 72%
18:00 +26°C° 0.5 mm 1 mps 671 mmHg 75%
19:00 +25°C° 0.5 mm 1 mps 671 mmHg 78%
20:00 +24°C° 0.5 mm 1 mps 672 mmHg 80%
21:00 +23°C° 0.3 mm 1 mps 672 mmHg 81%
22:00 +23°C° 0.3 mm 1 mps 672 mmHg 81%
23:00 +23°C° 0.3 mm 1 mps 672 mmHg 81%

1 October, Thursday

Time Temperature Precipitation Wind Pressure Humidity
00:00 +23°C° 0.1 mm 1 mps 672 mmHg 82%
01:00 +22°C° 0.1 mm 1 mps 672 mmHg 83%
02:00 +22°C° 0.1 mm 1 mps 671 mmHg 83%
03:00 +22°C° 0 mm 1 mps 671 mmHg 82%
04:00 +22°C° 0 mm 1 mps 671 mmHg 82%
05:00 +22°C° 0 mm 1 mps 671 mmHg 81%
06:00 +24°C° 0 mm 1 mps 672 mmHg 75%
07:00 +25°C° 0 mm 1 mps 673 mmHg 68%
08:00 +25°C° 0 mm 0 mps 674 mmHg 62%
09:00 +29°C° 0.3 mm 1 mps 674 mmHg 56%
10:00 +30°C° 0.3 mm 1 mps 674 mmHg 51%
11:00 +32°C° 0.3 mm 1 mps 674 mmHg 46%
12:00 +32°C° 0.5 mm 2 mps 673 mmHg 48%
13:00 +31°C° 0.5 mm 3 mps 672 mmHg 51%
14:00 +31°C° 0.5 mm 3 mps 671 mmHg 53%
15:00 +29°C° 1 mm 3 mps 671 mmHg 59%
16:00 +28°C° 1 mm 2 mps 670 mmHg 64%
17:00 +27°C° 1 mm 2 mps 670 mmHg 70%
18:00 +26°C° 0.3 mm 1 mps 671 mmHg 73%
19:00 +25°C° 0.3 mm 1 mps 671 mmHg 76%
20:00 +22°C° 0.3 mm 0 mps 672 mmHg 79%
21:00 +24°C° 0 mm 1 mps 672 mmHg 79%
22:00 +23°C° 0 mm 1 mps 672 mmHg 79%
23:00 +23°C° 0 mm 1 mps 672 mmHg 78%

2 October, Friday

Time Temperature Precipitation Wind Pressure Humidity
00:00 +23°C° 0 mm 1 mps 672 mmHg 78%
01:00 +23°C° 0 mm 1 mps 671 mmHg 79%
02:00 +22°C° 0 mm 1 mps 671 mmHg 79%
03:00 +22°C° 0 mm 1 mps 671 mmHg 78%
04:00 +22°C° 0 mm 1 mps 672 mmHg 78%
05:00 +22°C° 0 mm 1 mps 672 mmHg 77%
06:00 +23°C° 0 mm 1 mps 673 mmHg 74%
07:00 +23°C° 0 mm 0 mps 674 mmHg 70%
08:00 +24°C° 0 mm 0 mps 674 mmHg 66%
09:00 +28°C° 0.4 mm 1 mps 674 mmHg 61%
10:00 +29°C° 0.4 mm 2 mps 674 mmHg 56%
11:00 +30°C° 0.4 mm 2 mps 674 mmHg 51%
12:00 +30°C° 0.5 mm 2 mps 673 mmHg 52%
13:00 +30°C° 0.5 mm 3 mps 672 mmHg 53%
14:00 +30°C° 0.5 mm 3 mps 672 mmHg 53%
15:00 +29°C° 0.2 mm 3 mps 671 mmHg 56%
16:00 +29°C° 0.2 mm 2 mps 671 mmHg 59%
17:00 +28°C° 0.2 mm 2 mps 671 mmHg 62%
18:00 +27°C° 0 mm 2 mps 671 mmHg 65%
19:00 +25°C° 0 mm 1 mps 672 mmHg 69%
20:00 +24°C° 0 mm 1 mps 672 mmHg 72%
21:00 +24°C° 0 mm 1 mps 672 mmHg 72%
22:00 +24°C° 0 mm 1 mps 672 mmHg 73%
23:00 +23°C° 0 mm 1 mps 672 mmHg 73%

3 October, Saturday

Time Temperature Precipitation Wind Pressure Humidity
00:00 +23°C° 0 mm 1 mps 672 mmHg 73%
01:00 +23°C° 0 mm 1 mps 672 mmHg 73%
02:00 +23°C° 0 mm 1 mps 671 mmHg 73%
03:00 +22°C° 0 mm 1 mps 672 mmHg 74%
04:00 +22°C° 0 mm 1 mps 672 mmHg 74%
05:00 +22°C° 0 mm 1 mps 672 mmHg 74%
06:00 +24°C° 0 mm 1 mps 673 mmHg 69%
07:00 +26°C° 0 mm 1 mps 674 mmHg 65%
08:00 +25°C° 0 mm 0 mps 675 mmHg 60%
09:00 +29°C° 0.3 mm 1 mps 675 mmHg 55%
10:00 +30°C° 0.3 mm 2 mps 674 mmHg 51%
11:00 +31°C° 0.3 mm 2 mps 674 mmHg 47%
12:00 +31°C° 0.1 mm 2 mps 674 mmHg 45%
13:00 +32°C° 0.1 mm 2 mps 673 mmHg 43%
14:00 +33°C° 0.1 mm 3 mps 672 mmHg 42%
15:00 +31°C° 0.1 mm 2 mps 672 mmHg 47%
16:00 +29°C° 0.1 mm 2 mps 671 mmHg 53%
17:00 +28°C° 0.1 mm 2 mps 671 mmHg 58%
18:00 +27°C° 0.2 mm 1 mps 672 mmHg 62%
19:00 +26°C° 0.2 mm 1 mps 672 mmHg 66%
20:00 +25°C° 0.2 mm 1 mps 673 mmHg 70%
21:00 +24°C° 0 mm 1 mps 673 mmHg 70%
22:00 +24°C° 0 mm 1 mps 673 mmHg 70%
23:00 +24°C° 0 mm 1 mps 673 mmHg 70%
Show more